map of CNX home
CNX - Airport
Location
City:  Chiang Mai, Chiang Mai, Thailand
Name:Chiang Mai International Airport
ICAO:VTCC
IATA:CNX

Details
Type:Airport (Aerodrome, Airfield)
Use:Public/Civil, Military, International (customs port of entry)
Latitude:1846'01"N (18.766847)
Longitude:9857'46"E (98.962644)
Datum:WGS 1984
Elevation:1036 ft (316 m)
Variation:0.87W (WMM2015v2 magnetic declination)
-0.03 annual change
Runways:1
Longest:10171 × 148 ft (3100 × 45 m), paved

Time
Time Zone:UTC+7
Local Time:

Weather
METAR:VTCC 041400Z VRB01KT 9999 FEW035 23/13 Q1016 NOSIG
TAF:VTCC 041100Z 0412/0518 30005KT 9999 FEW035

Related Locations
Nearby:
Farthest:SJA: 11988 mi / 19293 km
San Juan de Marcona [San Juan de Marcona Airport], ICA, PE

Find:

   beyond  
but within

Other Information
Maps:
NOTAMs:
Links:
Sources:

  
  • flag of Thailand
  

Sectional Chart

Flight Planning
at skyvector.com

Satellite Image

Google Maps Satellite view

 

Copyright © 2004-2019 Karl L. Swartz. All rights reserved.
The Great Circle Mapper name and logo are trademarks of the Great Circle Mapper.
All other trademarks mentioned herein belong to their respective owners.
Please see credits for attibutions and further copyright information.

  Follow gcmap on Facebook Follow gcmap on Twitter GCmap on LinkedIn

hCard Microformat

Geo Microformat